This demonstration page uses our WeatherBlox Daily Observations layout. Learn more.

39.29038, -76.61219

Hourly Observations for September 17, 2020

Temp ( °F °C ) Dew Point ( °F °C ) Humidity (%) Winds ( mph kmh ) Pressure ( in mb ) Visibility ( mi km ) Precip ( " mm )
12:54 am 00:54 Mostly Cloudy 61 16.1 58 14.4 90 90 Calm 30.09 1019 10 16.0934 0 0
1:54 am 01:54 Mostly Cloudy 61 16.1 58 14.4 90 90 Calm 30.08 1019 10 16.0934 0 0
2:29 am 02:29 Cloudy 63 17.2 59 15 87 87 Calm 30.08 1019 10 16.0934 0 0
2:54 am 02:54 Cloudy 62 16.7 59 15 90 90 Calm 30.07 1018 10 16.0934 0 0
3:54 am 03:54 Mostly Cloudy 64 17.8 59 15 84 84 Calm 30.05 1018 10 16.0934 0 0
4:54 am 04:54 Cloudy 63 17.2 60 15.6 90 90 Calm 30.04 1017 10 16.0934 0 0
5:54 am 05:54 Mostly Cloudy 63 17.2 59 15 87 87 Calm 30.04 1017 10 16.0934 0 0
6:54 am 06:54 Mostly Cloudy 63 17.2 59 15 87 87 Calm 30.04 1017 10 16.0934 0 0
7:54 am 07:54 Cloudy 64 17.8 60 15.6 87 87 Calm 30.05 1018 10 16.0934 0 0
8:54 am 08:54 Cloudy 66 18.9 61 16.1 84 84 Calm 30.05 1018 10 16.0934 0 0
9:13 am 09:13 Cloudy 68 20 59 15 73 73 NNE 3 6 30.05 1017 10 16.0934 0 0
9:54 am 09:54 Cloudy 70 21.1 59 15 68 68 Calm 30.05 1018 10 16.0934 0 0
10:54 am 10:54 Cloudy 72 22.2 60 15.6 66 66 NW 3 6 30.05 1018 10 16.0934 0 0
11:54 am 11:54 Cloudy 72 22.2 60 15.6 66 66 Calm 30.04 1017 10 16.0934 0 0
12:54 pm 12:54 Cloudy 73 22.8 62 16.7 69 69 Calm 30.03 1017 10 16.0934 0 0
1:54 pm 13:54 Cloudy 74 23.3 63 17.2 69 69 Calm 30.01 1016 10 16.0934 0 0
2:54 pm 14:54 Cloudy 74 23.3 64 17.8 71 71 SW 3 6 29.98 1015 10 16.0934 0 0
3:54 pm 15:54 Cloudy 73 22.8 64 17.8 74 74 Calm 29.97 1015 10 16.0934 0 0
4:54 pm 16:54 Cloudy with Light Rain 72 22.2 65 18.3 79 79 SSE 5 7 29.96 1015 7 11.26538 0.01 0.254
5:54 pm 17:54 Cloudy with Light Rain 70 21.1 66 18.9 87 87 SSE 3 6 29.96 1014 6 9.65604 0.04 1.016
6:54 pm 18:54 Cloudy with Light Rain 70 21.1 67 19.4 90 90 SSE 3 6 29.95 1014 7 11.26538 0.02 0.508
7:34 pm 19:34 Mostly Cloudy with Light Rain 69 20.6 66 18.9 90 90 E 3 6 29.95 1014 10 16.0934 0.001 0.001
7:54 pm 19:54 Cloudy 70 21.1 67 19.4 90 90 Calm 29.95 1014 7 11.26538 0.001 0.001
8:31 pm 20:31 Cloudy with Light Rain 70 21.1 67 19.4 90 90 Calm 29.96 1014 6 9.65604 0.001 0.001
8:54 pm 20:54 Cloudy with Light Rain 70 21.1 67 19.4 90 90 Calm 29.96 1015 4 6.43736 0.01 0.254
9:54 pm 21:54 Cloudy with Light Rain 69 20.6 67 19.4 93 93 SSE 3 6 29.95 1014 6 9.65604 0.01 0.254
10:30 pm 22:30 Cloudy with Light Rain 69 20.6 67 19.4 93 93 SSE 3 6 29.94 1014 6 9.65604 0.01 0.254
10:54 pm 22:54 Cloudy with Light Rain 69 20.6 67 19.4 93 93 SSE 5 7 29.94 1014 6 9.65604 0.01 0.254
11:23 pm 23:23 Cloudy with Light Rain 69 20.6 66 18.9 90 90 S 3 6 29.93 1013 10 16.0934 0.001 0.001
11:54 pm 23:54 Cloudy 69 20.6 66 18.9 90 90 Calm 29.93 1014 10 16.0934 0.001 0.001

Powered by AerisWeather